Home   Weather   Austin   Past weeks
Flag for USA

Past Weather in Austin, Texas, USA — Yesterday and Last 2 Weeks

Now
72 °F

Overcast.


Feels Like: 75 °F
Forecast: 74 / 58 °F
Wind: 7 mph from South

Location: Camp Mabry / Austin City

Current Time: Mar 23, 2019 at 4:17:45 pm

Latest Report: Mar 23, 2019 at 2:51 pm


Visibility: 10 mi

Pressure: 30.04 "Hg

Humidity: 66%

Dew Point: 60 °F

Location of AustinLocation

Past Weather in Austin — Graph

°F

Austin Temperature Yesterday

Maximum temperature yesterday: 80 °F (at 2:51 pm)
Minimum temperature yesterday: 51 °F (at 7:51 am)
Average temperature yesterday: 66 °F

High & Low Weather Summary for the Past Weeks

 TemperatureHumidityPressure
High83 °F (Mar 8, 2:51 pm)97% (Mar 12, 9:38 am)30.46 "Hg (Mar 12, 9:38 am)
Low45 °F (Mar 17, 6:51 am)13% (Mar 21, 2:51 pm)29.54 "Hg (Mar 13, 5:51 pm)
Average64 °F57%30.09 "Hg
* Reported Mar 8 1:27 pm — Mar 23 2:51 pm, Austin. Weather by CustomWeather, © 2019

Note: Actual official high and low records may vary slightly from our data, if they occured in-between our weather recording intervals... More about our weather records

Advertising

Austin Weather History for the Previous 24 Hours

Scroll right to see more
 ConditionsComfort  
Time TempWeatherWind HumidityBarometerVisibility
2:51 pm
Sat, Mar 23
72 °FOvercast.7 mph66%30.04 "Hg10 mi
1:51 pm72 °FMostly cloudy.10 mph64%30.05 "Hg10 mi
1:03 pm72 °FCloudy.6 mph64%30.09 "Hg10 mi
12:51 pm72 °FCloudy.8 mph64%30.08 "Hg10 mi
11:51 am70 °FOvercast.7 mph68%30.08 "Hg10 mi
10:51 am68 °FMostly cloudy.7 mph70%30.09 "Hg10 mi
9:51 am65 °FOvercast.7 mph76%30.09 "Hg10 mi
8:51 am64 °FOvercast.6 mph75%30.08 "Hg10 mi
7:51 am63 °FMostly cloudy.6 mph78%30.06 "Hg10 mi
6:51 am62 °FMostly cloudy.3 mph78%30.04 "Hg10 mi
6:27 am63 °FOvercast.5 mph75%30.05 "Hg10 mi
5:51 am63 °FMostly cloudy.3 mph73%30.01 "Hg10 mi
4:51 am63 °FMostly cloudy.3 mph70%30.00 "Hg10 mi
4:30 am63 °FMostly cloudy.6 mph70%30.03 "Hg10 mi
3:51 am63 °FOvercast.No wind68%30.02 "Hg10 mi
2:51 am63 °FMostly cloudy.5 mph63%30.03 "Hg10 mi
1:51 am63 °FOvercast.6 mph60%30.04 "Hg10 mi
12:51 am64 °FPassing clouds.8 mph56%30.05 "Hg10 mi
11:51 pm
Fri, Mar 22
66 °FOvercast.8 mph49%30.07 "Hg10 mi
10:51 pm68 °FOvercast.7 mph44%30.06 "Hg10 mi
9:51 pm70 °FPassing clouds.9 mph39%30.04 "Hg10 mi
8:51 pm72 °FOvercast.9 mph43%30.04 "Hg10 mi
7:51 pm73 °FOvercast.9 mph44%30.03 "Hg10 mi
6:51 pm75 °FOvercast.7 mph39%30.02 "Hg10 mi
5:51 pm77 °FPartly sunny.6 mph36%30.01 "Hg10 mi
4:51 pm77 °FPartly sunny.8 mph39%30.02 "Hg10 mi
Weather by CustomWeather, © 2019

See weather overview